Borden, Ontario

11:17 PM EST on February 09, 2016 (GMT -0500)
Borden

Weather History for CYBN - October, 2011

Change the Weather History Date:

Tuesday, October 11, 2011

  Actual Average Record
Temperature  
Mean Temperature 59 °F -  
Max Temperature 76 °F 50 °F 75 °F (2003)
Min Temperature 42 °F 34 °F 26 °F (2004)
Degree Days  
Heating Degree Days 6    
Growing Degree Days 9 (Base 50)    
Moisture  
Dew Point 49 °F    
Average Humidity 91    
Maximum Humidity 100    
Minimum Humidity 42    
Precipitation  
Precipitation 0.00 in - - ()
Sea Level Pressure  
Sea Level Pressure 30.17 in    
Wind  
Wind Speed 2 mph ()    
Max Wind Speed 14 mph    
Max Gust Speed -    
Visibility 3.3 miles    
Events      
Averages and records for this station are not official NWS values.
T = Trace of Precipitation, MM = Missing Value Source: Averaged Metar Reports

Daily Weather History Graph

Daily Weather History Graph

Search for Another Location

Airport or City:

Trip Planner

Search our weather history database for the weather conditions in past years. The results will help you decide how hot, cold, wet, or windy it might be!

Date:

Astronomy

Oct. 11, 2011 Rise Set
Actual Time 7:29 AM EDT 6:42 PM EDT
Civil Twilight 7:00 AM EDT 7:12 PM EDT
Nautical Twilight 6:26 AM EDT 7:45 PM EDT
Astronomical Twilight 5:52 AM EDT 8:19 PM EDT
Moon 6:11 PM EDT (10/11) 7:07 AM EDT (10/11)
Length of Visible Light 12h 11m
Length of Day
11h 13m
Full, 100% of the Moon is Illuminated
Oct 11
Full
Oct 11
Full
Oct 19
Last Quarter
Oct 26
New
Nov 2
First Quarter

Hourly Weather History & Observations

Time (EDT) Temp. Windchill Dew Point Humidity Pressure Visibility Wind Dir Wind Speed Gust Speed Precip Events Conditions
12:00 AM 53.6 °F - 51.8 °F 94% 30.22 in 3.0 mi Calm Calm - N/A   Clear
12:55 AM 53.6 °F - 51.8 °F 94% 30.20 in 4.0 mi Calm Calm - N/A   Clear
1:00 AM 51.8 °F - 51.8 °F 100% 30.20 in 4.0 mi Calm Calm - N/A   Clear
2:00 AM 52 °F - 52 °F 98% 30.20 in 4 mi Calm Calm - -  
2:00 AM 51.8 °F - 51.8 °F 100% 30.20 in 4.0 mi Calm Calm - N/A   Clear
2:49 AM 48.2 °F - 48.2 °F 100% 30.19 in 1.2 mi Calm Calm - N/A   Clear
2:50 AM 48.2 °F - 48.2 °F 100% 30.19 in 1.0 mi Calm Calm - N/A   Clear
2:52 AM 48.2 °F - 48.2 °F 100% 30.19 in 0.4 mi SSW 2.3 mph - N/A   Clear
2:56 AM 48.2 °F - 48.2 °F 100% 30.19 in 0.1 mi SSW 2.3 mph - N/A   Clear
3:00 AM 48.2 °F - 48.2 °F 100% 30.19 in 0.1 mi South 2.3 mph - N/A   Clear
3:03 AM 48.2 °F - 48.2 °F 100% 30.18 in 0.4 mi Calm Calm - N/A   Clear
3:05 AM 48.2 °F - 48.2 °F 100% 30.18 in 1.1 mi Calm Calm - N/A   Clear
3:07 AM 48.2 °F - 48.2 °F 100% 30.18 in 4.0 mi Calm Calm - N/A   Clear
3:17 AM 48.2 °F - 46.4 °F 93% 30.18 in 1.2 mi SW 2.3 mph - N/A   Clear
3:18 AM 48.2 °F - 46.4 °F 93% 30.18 in 0.8 mi SW 2.3 mph - N/A   Clear
3:19 AM 48.2 °F - 46.4 °F 93% 30.18 in 0.6 mi SW 2.3 mph - N/A   Clear
3:22 AM 48.2 °F - 48.2 °F 100% 30.18 in 0.4 mi SSW 2.3 mph - N/A   Clear
3:32 AM 48.2 °F - 48.2 °F 100% 30.17 in 1.0 mi SE 2.3 mph - N/A   Clear
3:42 AM 50.0 °F - 48.2 °F 94% 30.17 in 1.6 mi ENE 4.6 mph - N/A   Clear
4:00 AM 46.4 °F - 46.4 °F 100% 30.18 in 1.1 mi Calm Calm - N/A   Clear
4:23 AM 48.2 °F - 48.2 °F 100% 30.18 in 4.0 mi SE 2.3 mph - N/A   Clear
4:31 AM 46.4 °F - 46.4 °F 100% 30.18 in 2.5 mi SE 2.3 mph - N/A   Clear
4:35 AM 44.6 °F - 44.6 °F 100% 30.18 in 1.2 mi SSE 2.3 mph - N/A   Clear
4:58 AM 46.4 °F - 46.4 °F 100% 30.18 in 2.1 mi South 2.3 mph - N/A   Clear
5:00 AM 46.4 °F - 46.4 °F 100% 30.19 in 1.0 mi SSW 2.3 mph - N/A   Clear
5:01 AM 46.4 °F - 46.4 °F 100% 30.18 in 0.6 mi SSW 2.3 mph - N/A   Clear
5:07 AM 44.6 °F - 44.6 °F 100% 30.18 in 0.4 mi South 2.3 mph - N/A   Clear
5:13 AM 46.4 °F 45.2 °F 44.6 °F 93% 30.19 in 0.1 mi SSW 3.5 mph - N/A   Clear
5:54 AM 44.6 °F 43.1 °F 44.6 °F 100% 30.19 in 0.5 mi SW 3.5 mph - N/A   Clear
5:56 AM 44.6 °F - 44.6 °F 100% 30.19 in 2.1 mi SW 2.3 mph - N/A   Clear
6:00 AM 44.6 °F - 44.6 °F 100% 30.22 in 2.5 mi SW 2.3 mph - N/A   Clear
6:04 AM 44.6 °F - 44.6 °F 100% 30.19 in 1.2 mi SW 2.3 mph - N/A   Clear
6:05 AM 44.6 °F 43.1 °F 44.6 °F 100% 30.19 in 0.6 mi SW 3.5 mph - N/A   Clear
6:06 AM 44.6 °F 43.1 °F 44.6 °F 100% 30.19 in 0.4 mi SW 3.5 mph - N/A   Scattered Clouds
6:19 AM 46.4 °F - 46.4 °F 100% 30.19 in 0.5 mi Calm Calm - N/A   Partly Cloudy
6:21 AM 46.4 °F - 46.4 °F 100% 30.19 in 1.1 mi Calm Calm - N/A   Partly Cloudy
6:23 AM 44.6 °F - 44.6 °F 100% 30.19 in 3.0 mi Calm Calm - N/A   Partly Cloudy
6:33 AM 44.6 °F - 42.8 °F 93% 30.19 in 2.4 mi Calm Calm - N/A   Partly Cloudy
6:37 AM 44.6 °F - 44.6 °F 100% 30.19 in 1.0 mi SSW 2.3 mph - N/A   Partly Cloudy
6:38 AM 44.6 °F - 44.6 °F 100% 30.19 in 0.6 mi SSW 2.3 mph - N/A   Partly Cloudy
6:40 AM 44.6 °F - 44.6 °F 100% 30.19 in 0.4 mi SSW 2.3 mph - N/A   Partly Cloudy
6:49 AM 44.6 °F 43.1 °F 44.6 °F 100% 30.19 in 1.0 mi South 3.5 mph - N/A   Partly Cloudy
7:16 AM 42.8 °F - 42.8 °F 100% 30.19 in 2.4 mi SSE 2.3 mph - N/A   Clear
8:16 AM 46.4 °F - 46.4 °F 100% 30.20 in 3.0 mi Calm Calm - N/A   Clear
8:46 AM 51.8 °F - 51.8 °F 100% 30.20 in 2.5 mi Calm Calm - N/A   Clear
9:00 AM 53.6 °F - 53.6 °F 100% 30.21 in 2.5 mi Calm Calm - N/A   Clear
9:03 AM 55.4 °F - 53.6 °F 94% 30.20 in 3.5 mi South 3.5 mph - N/A   Clear
10:00 AM 62.6 °F - 57.2 °F 82% 30.20 in 7.0 mi South 3.5 mph - N/A   Clear
11:00 AM 68.0 °F - 59.0 °F 73% 30.18 in 7.0 mi SE 6.9 mph - N/A   Unknown
12:00 PM 71.6 °F - 59.0 °F 64% 30.17 in 9.0 mi South 9.2 mph - N/A   Unknown
1:00 PM 75.2 °F - 57.2 °F 53% 30.16 in 9.0 mi SSE 13.8 mph - N/A   Clear
2:00 PM 75 °F - 56 °F 42% 30.14 in 9 mi SSE 11.5 mph - -  
2:00 PM 75.2 °F - 57.2 °F 53% 30.14 in 9.0 mi South 12.7 mph - N/A   Clear
3:00 PM 75.2 °F - 55.4 °F 50% 30.13 in 9.0 mi SSE 10.4 mph - N/A   Clear
4:00 PM 73.4 °F - 57.2 °F 57% 30.12 in 9.0 mi SSE 6.9 mph - N/A   Clear
5:00 PM 73.4 °F - 57.2 °F 57% 30.12 in 9.0 mi SE 4.6 mph - N/A   Clear
6:00 PM 69.8 °F - 55.4 °F 60% 30.11 in 9.0 mi SE 5.8 mph - N/A   Clear
7:00 PM 66.2 °F - 55.4 °F 68% 30.11 in 9.0 mi SE 6.9 mph - N/A   Clear
8:00 PM 64 °F - 54 °F 63% 30.11 in 9 mi SE 4.6 mph - -  
8:00 PM 64.4 °F - 53.6 °F 68% 30.11 in 9.0 mi SE 4.6 mph - N/A   Clear
9:00 PM 57.2 °F - 53.6 °F 88% 30.11 in 8.0 mi SSE 3.5 mph - N/A   Clear
10:00 PM 53.6 °F - 51.8 °F 94% 30.11 in 5.0 mi SW 2.3 mph - N/A   Clear
11:00 PM 51.8 °F - 51.8 °F 100% 30.11 in 3.5 mi Calm Calm - N/A   Clear
11:06 PM 51.8 °F - 51.8 °F 100% 30.10 in 2.5 mi Calm Calm - N/A   Clear
11:25 PM 51.8 °F - 51.8 °F 100% 30.10 in 4.0 mi South 2.3 mph - N/A   Clear